| time (UTC) | temp F | wind direction | speed knots | gust knots | rain 1hr in | rain 24hr in | rain mn in | humidity % | barometer mb |
| 20260504081556 | 63 | 223 | 0.0 | 3.5 | 0.00 | 0.00 | 0.00 | 82 | 1016.2 |
| 20260504044551 | 65 | 183 | 0.9 | 5.2 | 0.00 | 0.00 | 0.00 | 76 | 1018.9 |
| 20260504043055 | 65 | 0 | 0.0 | 3.5 | 0.00 | 0.00 | 0.00 | 76 | 1019.1 |
| 20260504041547 | 65 | 0 | 0.0 | 0.0 | 0.00 | 0.00 | 0.00 | 75 | 1019.2 |
| 20260504040050 | 66 | 0 | 0.0 | 3.5 | 0.00 | 0.00 | 0.00 | 75 | 1019.4 |
| 20260504034555 | 66 | 0 | 0.0 | 2.6 | 0.00 | 0.00 | 0.00 | 74 | 1019.3 |
| 20260504033045 | 66 | 0 | 0.0 | 0.0 | 0.00 | 0.00 | 0.00 | 73 | 1019.1 |
| 20260504031546 | 67 | 0 | 0.0 | 0.0 | 0.00 | 0.00 | 0.00 | 73 | 1019.1 |
| 20260504030051 | 67 | 0 | 0.0 | 0.0 | 0.00 | 0.00 | 0.00 | 71 | 1019.2 |
| 20260504024553 | 68 | 0 | 0.0 | 1.7 | 0.00 | 0.00 | 0.00 | 70 | 1019.2 |
| 20260504023053 | 69 | 0 | 0.0 | 3.5 | 0.00 | 0.00 | 0.00 | 68 | 1018.8 |
| 20260504021554 | 69 | 0 | 0.0 | 3.5 | 0.00 | 0.00 | 0.00 | 67 | 1018.6 |
| 20260504020105 | 70 | 0 | 0.0 | 3.5 | 0.00 | 0.00 | 0.00 | 65 | 1018.6 |
| 20260504014548 | 71 | 0 | 0.0 | 4.3 | 0.00 | 0.00 | 0.00 | 64 | 1018.5 |
| 20260504013108 | 71 | 289 | 0.0 | 6.1 | 0.00 | 0.00 | 0.00 | 62 | 1018.3 |
| 20260504011553 | 72 | 155 | 0.9 | 7.0 | 0.00 | 0.00 | 0.00 | 61 | 1018.2 |
| 20260504010052 | 73 | 234 | 0.9 | 6.1 | 0.00 | 0.00 | 0.00 | 58 | 1018.0 |
| 20260504004551 | 74 | 205 | 0.9 | 9.6 | 0.00 | 0.00 | 0.00 | 52 | 1018.1 |
| 20260504003047 | 75 | 209 | 2.6 | 12.2 | 0.00 | 0.00 | 0.00 | 54 | 1018.2 |
| 20260504001550 | 76 | 263 | 2.6 | 8.7 | 0.00 | 0.00 | 0.00 | 53 | 1018.3 |
| 20260504000055 | 76 | 302 | 3.5 | 8.7 | 0.00 | 0.00 | 0.00 | 51 | 1018.4 |
| 20260503234553 | 77 | 232 | 3.5 | 7.8 | 0.00 | 0.00 | 0.00 | 49 | 1018.3 |
| 20260503233050 | 78 | 0 | 2.6 | 13.0 | 0.00 | 0.00 | 0.00 | 46 | 1018.1 |
| 20260503231552 | 78 | 178 | 0.9 | 7.0 | 0.00 | 0.00 | 0.00 | 46 | 1018.1 |
| 20260503230052 | 79 | 155 | 1.7 | 12.2 | 0.00 | 0.00 | 0.00 | 47 | 1018.3 |
| 20260503224558 | 79 | 175 | 2.6 | 10.4 | 0.00 | 0.00 | 0.00 | 47 | 1018.5 |
| 20260503223054 | 79 | 210 | 4.3 | 11.3 | 0.00 | 0.00 | 0.00 | 48 | 1018.5 |
| 20260503221604 | 79 | 290 | 1.7 | 8.7 | 0.00 | 0.00 | 0.00 | 46 | 1018.5 |
| 20260503220058 | 79 | 204 | 2.6 | 7.8 | 0.00 | 0.00 | 0.00 | 48 | 1018.6 |
| 20260503214550 | 80 | 280 | 2.6 | 7.0 | 0.00 | 0.00 | 0.00 | 45 | 1018.9 |
| 20260503213048 | 80 | 183 | 2.6 | 8.7 | 0.00 | 0.00 | 0.00 | 46 | 1019.5 |
| 20260503211552 | 81 | 227 | 2.6 | 7.0 | 0.00 | 0.00 | 0.00 | 44 | 1019.5 |
| 20260503210049 | 81 | 197 | 2.6 | 9.6 | 0.00 | 0.00 | 0.00 | 42 | 1019.5 |
| 20260503204606 | 81 | 186 | 0.9 | 9.6 | 0.00 | 0.00 | 0.00 | 42 | 1020.0 |
| 20260503203057 | 81 | 210 | 0.0 | 6.1 | 0.00 | 0.00 | 0.00 | 40 | 1020.1 |
| 20260503201553 | 80 | 265 | 1.7 | 7.0 | 0.00 | 0.00 | 0.00 | 44 | 1020.3 |
| 20260503200054 | 81 | 0 | 0.9 | 7.8 | 0.00 | 0.00 | 0.00 | 41 | 1020.6 |
| 20260503194609 | 81 | 283 | 0.9 | 7.8 | 0.00 | 0.00 | 0.00 | 40 | 1020.9 |
| 20260503193056 | 81 | 260 | 1.7 | 8.7 | 0.00 | 0.00 | 0.00 | 38 | 1021.1 |
| 20260503191609 | 79 | 286 | 0.9 | 9.6 | 0.00 | 0.00 | 0.00 | 38 | 1021.1 |
| 20260503190052 | 80 | 219 | 0.9 | 6.1 | 0.00 | 0.00 | 0.00 | 43 | 1021.3 |
| 20260503184551 | 80 | 0 | 0.0 | 4.3 | 0.00 | 0.00 | 0.00 | 39 | 1021.6 |
| 20260503183053 | 79 | 201 | 0.9 | 7.8 | 0.00 | 0.00 | 0.00 | 42 | 1022.0 |
| 20260503181554 | 78 | 120 | 0.9 | 7.0 | 0.00 | 0.00 | 0.00 | 42 | 1022.3 |
| 20260503180058 | 79 | 201 | 2.6 | 14.8 | 0.00 | 0.00 | 0.00 | 44 | 1022.6 |
| 20260503174554 | 78 | 0 | 1.7 | 7.0 | 0.00 | 0.00 | 0.00 | 42 | 1022.7 |
| 20260503173048 | 78 | 125 | 0.0 | 4.3 | 0.00 | 0.00 | 0.00 | 45 | 1022.8 |
| 20260503171549 | 78 | 0 | 1.7 | 7.0 | 0.00 | 0.00 | 0.00 | 42 | 1023.0 |